Weather History for Liverpool, United Kingdom

Change the Weather History Date:

Saturday, February 2, 2013

  Actual Average Record
Temperature  
Mean Temperature 38 °F -  
Max Temperature 42 °F 45 °F 57 °F (2002)
Min Temperature 33 °F 36 °F 26 °F (2012)
Degree Days  
Heating Degree Days 28    
Moisture  
Dew Point 31 °F    
Average Humidity 76    
Maximum Humidity 93    
Minimum Humidity 53    
Precipitation  
Precipitation 0.00 in - - ()
Sea Level Pressure  
Sea Level Pressure 30.08 in    
Wind  
Wind Speed 9 mph ()    
Max Wind Speed 17 mph    
Max Gust Speed 26 mph    
Visibility 6.2 miles    
Events      
Averages and records for this station are not official NWS values.
T = Trace of Precipitation, MM = Missing Value Source: Averaged Metar Reports

Daily Weather History Graph

Daily Weather History Graph

Search for Another Location

Airport:

Trip Planner

Search our weather history database for the weather conditions in past years. The results will help you decide how hot, cold, wet, or windy it might be!

Date:

Astronomy

Feb. 02, 2013 Rise Set
Actual Time 7:54 AM GMT 4:56 PM GMT
Civil Twilight 7:16 AM GMT 5:34 PM GMT
Nautical Twilight 6:34 AM GMT 6:16 PM GMT
Astronomical Twilight 5:53 AM GMT 6:57 PM GMT
Moon No Moon Rise 9:51 AM GMT (2/2)
Length of Visible Light 10h 18m
Length of Day
9h 02m
Waning Gibbous, 62% of the Moon is Illuminated
Feb 2
Waning Gibbous
Feb 3
Last Quarter
Feb 10
New
Feb 17
First Quarter
Feb 25
Full

Hourly Weather History & Observations

Time (GMT) Temp. Windchill Dew Point Humidity Pressure Visibility Wind Dir Wind Speed Gust Speed Precip Events Conditions
12:20 AM 39.2 °F 32.0 °F 33.8 °F 81% 29.77 in 6.2 mi North 11.5 mph - N/A   Partly Cloudy
12:50 AM 39.2 °F 31.2 °F 32.0 °F 75% 29.77 in 6.2 mi NNW 13.8 mph - N/A   Partly Cloudy
1:20 AM 37.4 °F 28.2 °F 30.2 °F 75% 29.80 in - NNW 16.1 mph - N/A   Clear
1:50 AM 37.4 °F 28.9 °F 32.0 °F 81% 29.83 in - North 13.8 mph - N/A   Clear
2:20 AM 37.4 °F 30.3 °F 30.2 °F 75% 29.83 in - NNW 10.4 mph - N/A   Clear
2:50 AM 35.6 °F 29.2 °F 30.2 °F 81% 29.86 in 6.2 mi North 8.1 mph - N/A   Partly Cloudy
3:20 AM 35.6 °F 29.2 °F 30.2 °F 81% 29.89 in - NNW 8.1 mph - N/A   Clear
3:50 AM 37.4 °F 30.3 °F 32.0 °F 81% 29.89 in - NW 10.4 mph - N/A   Clear
4:20 AM 35.6 °F 28.0 °F 30.2 °F 81% 29.89 in - NW 10.4 mph - N/A   Clear
4:50 AM 35.6 °F 28.0 °F 30.2 °F 81% 29.92 in - NNW 10.4 mph - N/A   Clear
5:20 AM 35.6 °F 27.5 °F 30.2 °F 81% 29.95 in - NNW 11.5 mph - N/A   Clear
5:50 AM 35.6 °F 28.0 °F 32.0 °F 87% 29.95 in - NNW 10.4 mph - N/A   Clear
6:20 AM 35.6 °F 28.6 °F 32.0 °F 87% 29.98 in - NNW 9.2 mph - N/A   Clear
6:50 AM 35.6 °F 29.2 °F 30.2 °F 81% 30.01 in - NNW 8.1 mph 20.7 mph N/A   Clear
7:20 AM 35.6 °F 28.6 °F 30.2 °F 81% 30.01 in - NNW 9.2 mph - N/A   Clear
7:50 AM 35.6 °F 29.2 °F 30.2 °F 81% 30.04 in - NW 8.1 mph - N/A   Clear
8:20 AM 35.6 °F 28.6 °F 30.2 °F 81% 30.04 in - NW 9.2 mph - N/A   Clear
8:50 AM 35.6 °F 28.6 °F 30.2 °F 81% 30.06 in - NW 9.2 mph - N/A   Clear
9:20 AM 37.4 °F 31.4 °F 30.2 °F 75% 30.09 in - NNW 8.1 mph - N/A   Clear
9:50 AM 39.2 °F 33.0 °F 30.2 °F 70% 30.09 in - NW 9.2 mph - N/A   Clear
10:20 AM 39.2 °F 31.6 °F 30.2 °F 70% 30.09 in - NW 12.7 mph - N/A   Clear
10:50 AM 39.2 °F 31.6 °F 30.2 °F 70% 30.12 in 6.2 mi NNW 12.7 mph - N/A   Partly Cloudy
11:20 AM 41.0 °F 34.3 °F 30.2 °F 65% 30.15 in 6.2 mi NW 11.5 mph - N/A   Partly Cloudy
11:50 AM 41.0 °F 33.1 °F 30.2 °F 65% 30.15 in 6.2 mi NNW 15.0 mph - N/A   Partly Cloudy
12:20 PM 42.8 °F 34.8 °F 28.4 °F 57% 30.15 in 6.2 mi NW 17.3 mph - N/A   Partly Cloudy
12:50 PM 42.8 °F 35.4 °F 26.6 °F 53% 30.15 in 6.2 mi NNW 15.0 mph - N/A   Partly Cloudy
1:20 PM 42.8 °F 35.4 °F 26.6 °F 53% 30.15 in 6.2 mi NW 15.0 mph - N/A   Partly Cloudy
1:50 PM 42.8 °F 35.1 °F 28.4 °F 57% 30.15 in 6.2 mi NW 16.1 mph - N/A   Partly Cloudy
2:20 PM 42.8 °F 35.4 °F 30.2 °F 61% 30.15 in 6.2 mi NW 15.0 mph 26.5 mph N/A   Partly Cloudy
2:50 PM 42.8 °F 36.2 °F 28.4 °F 57% 30.18 in 6.2 mi NW 12.7 mph - N/A   Partly Cloudy
3:20 PM 42.8 °F 35.8 °F 30.2 °F 61% 30.18 in 6.2 mi NW 13.8 mph - N/A   Partly Cloudy
3:50 PM 41.0 °F 35.2 °F 26.6 °F 57% 30.21 in 6.2 mi NNW 9.2 mph - N/A   Partly Cloudy
4:20 PM 41.0 °F 35.8 °F 28.4 °F 61% 30.21 in 6.2 mi NW 8.1 mph - N/A   Partly Cloudy
4:50 PM 39.2 °F 33.6 °F 30.2 °F 70% 30.21 in 6.2 mi NW 8.1 mph - N/A   Partly Cloudy
5:20 PM 37.4 °F 32.8 °F 30.2 °F 75% 30.21 in 6.2 mi NW 5.8 mph - N/A   Partly Cloudy
5:50 PM 37.4 °F 32.1 °F 32.0 °F 81% 30.24 in 6.2 mi NW 6.9 mph - N/A   Partly Cloudy
6:20 PM 37.4 °F 33.8 °F 32.0 °F 81% 30.24 in 6.2 mi NNW 4.6 mph - N/A   Partly Cloudy
6:50 PM 37.4 °F 32.8 °F 30.2 °F 75% 30.24 in 6.2 mi NW 5.8 mph - N/A   Partly Cloudy
7:20 PM 37.4 °F 33.8 °F 30.2 °F 75% 30.24 in 6.2 mi NW 4.6 mph - N/A   Partly Cloudy
7:50 PM 37.4 °F 34.9 °F 30.2 °F 75% 30.24 in 6.2 mi Variable 3.5 mph - N/A   Partly Cloudy
8:20 PM 37.4 °F 34.9 °F 32.0 °F 81% 30.21 in 6.2 mi West 3.5 mph - N/A   Partly Cloudy
8:50 PM 35.6 °F 32.8 °F 33.8 °F 93% 30.21 in 6.2 mi WSW 3.5 mph - N/A   Partly Cloudy
9:20 PM 35.6 °F - 33.8 °F 93% 30.21 in 6.2 mi South 2.3 mph - N/A   Partly Cloudy
9:50 PM 35.6 °F 32.8 °F 32.0 °F 87% 30.21 in 6.2 mi SSW 3.5 mph - N/A   Partly Cloudy
10:20 PM 33.8 °F - 32.0 °F 93% 30.21 in 6.2 mi Variable 1.2 mph - N/A   Partly Cloudy
10:50 PM 33.8 °F 30.8 °F 32.0 °F 93% 30.21 in 6.2 mi SW 3.5 mph - N/A   Partly Cloudy
11:20 PM 33.8 °F 30.8 °F 32.0 °F 93% 30.21 in 6.2 mi Variable 3.5 mph - N/A   Partly Cloudy
11:50 PM 33.8 °F - 32.0 °F 93% 30.21 in 6.2 mi Variable 2.3 mph - N/A   Scattered Clouds